Regional Weather Roundup
Issued by NWS

Home | Current Version | Previous Version | Text Only | Print | Product List | Glossary On
Versions: 1 2 3 4 5 6 7 8 9 10 11 12 13 14 15 16 17 18 19 20 21 22 23 24 25 26 27 28 29 30 31 32 33 34 35 36 37 38 39 40 41 42 43 44 45 46 47 48 49 50
000
ASUS46 KLOX 200412
RWRCA

SOUTHERN CALIFORNIA WEATHER ROUNDUP
NATIONAL WEATHER SERVICE OXNARD CALIFORNIA
900 PM PDT SUN OCT 19 2014

NOTE: "FAIR" INDICATES FEW OR NO CLOUDS BELOW 12,000 FEET WITH NO
SIGNIFICANT WEATHER AND/OR OBSTRUCTIONS TO VISIBILITY.

  -  STATIONS PRECEEDED BY AN ASTERISK (*) ARE NOT NWS OR FAA
     STATIONS AND ARE NOT SUBJECT TO NWS AND FAA QUALITY CONTROL.

CAZ041-042-087-200500-
LA AND ORANGE COUNTY COASTAL AREAS


CITY           SKY/WX    TMP DP  RH WIND       PRES   REMARKS
L.A. DOWNTOWN  CLOUDY    68  62  81 CALM      29.86S
L.A. AIRPORT   MOCLDY    67  63  87 W9        29.87R
LONG BEACH     NOT AVBL

CITY           SKY/WX    TMP DP  RH WIND       PRES   REMARKS
AVALON           N/A     63 N/A N/A MISG        N/A
*GETTY CENTER    N/A     61  59  94 NE3         N/A
HAWTHORNE      NOT AVBL
*REDONDO BEACH   N/A     68  63  85 CALM      29.87R
SANTA ANA      NOT AVBL
*STA MON PIER    N/A     68  64  89 CALM      29.86R
*UCLA            N/A     64  59  82 CALM      29.85R

$$

CAZ547-548-048-200500-
LA COUNTY VALLEYS AND INLAND EMPIRE


CITY           SKY/WX    TMP DP  RH WIND       PRES   REMARKS
BURBANK        NOT AVBL
VAN NUYS       NOT AVBL

CITY           SKY/WX    TMP DP  RH WIND       PRES   REMARKS
*CHATSWORTH      N/A     67  58  72 CALM      29.84S
ONTARIO        NOT AVBL
*PASADENA        N/A     68  63  83 CALM        N/A
SAN BERNARDINO NOT AVBL
*WHITEMAN AP   NOT AVBL
*WOODLAND HILL   N/A     64  55  72 E1          N/A

$$

CAZ054-055-200500-
LA AND SAN BERNARDINO COUNTY MOUNTAINS


CITY           SKY/WX    TMP DP  RH WIND       PRES   REMARKS
*BIG BEAR AIRP FAIR      45  30  57 CALM      30.15R
MT WILSON NWS    N/A     61  36  39 SW3         N/A
SANDBERG       FAIR      64  35  34 NW12G21   30.03S

$$

CAZ028-029-059-060-099-200500-
ANTELOPE VALLEY AND SURROUNDING AREAS


CITY           SKY/WX    TMP DP  RH WIND       PRES   REMARKS
LANCASTER      NOT AVBL
PALMDALE       NOT AVBL

CITY           SKY/WX    TMP DP  RH WIND       PRES   REMARKS
29 PALMS       FAIR      73  41  31 SW9       29.93R
BARSTOW/DAGGET NOT AVBL
BISHOP         NOT AVBL
CHINA LAKE     FAIR      71  37  28 S10       29.87R
MOJAVE         FAIR      70  43  37 W12       29.91S
NEEDLES        NOT AVBL
VICTORVILLE    FAIR      72  43  35 W7        29.92R

$$

CAZ039-040-200500-
VENTURA AND SANTA BARBARA COUNTY COAST


CITY           SKY/WX    TMP DP  RH WIND       PRES   REMARKS
CAMARILLO      NOT AVBL
NWS OXNARD       N/A     68  62  82 W5        29.87R
OXNARD AIRPORT NOT AVBL
*POINT MUGU    MOCLDY    71  63  75 W6        29.86S
SBA APT/GOLETA NOT AVBL
*SANTA BARBARA   N/A     67  59  74 CALM      29.93S
*VENTURA         N/A     66  62  88 NW3       29.90S

$$

CAZ044-045-200500-
VENTURA COUNTY VALLEYS


CITY           SKY/WX    TMP DP  RH WIND       PRES   REMARKS
*SIMI VALLEY     N/A     62  57  83 CALM      29.84R
*OJAI            N/A     59  55  87 CALM      29.83R
*FILLMORE        N/A     63  56  79 CALM      29.78R

$$

CAZ053-200500-
VENTURA COUNTY MOUNTAINS


CITY           SKY/WX    TMP DP  RH WIND       PRES   REMARKS
*LOCKWOOD VLY    N/A     52  30  43 MISG        N/A
*ROSE VALLEY     N/A     50  41  71 MISG        N/A

$$

CAZ034-035-036-200500-
CENTRAL COAST AND SANTA YNEZ VALLEY


CITY           SKY/WX    TMP DP  RH WIND       PRES   REMARKS
SAN LUIS OBISP NOT AVBL
SANTA MARIA    CLOUDY    66  60  81 W10       29.92R

CITY           SKY/WX    TMP DP  RH WIND       PRES   REMARKS
*CAL POLY SLO    N/A     63  59  88 NW2G12      N/A
*LOMPOC        CLOUDY    64  55  72 NW8       29.91S
*PISMO BEACH     N/A     62  58  87 N2        29.91S
*SANTA YNEZ    FAIR      59  55  88 W5        29.91R

$$

CAZ037-038-051-200500-
SAN LUIS OBISPO COUNTY INTERIOR AND CUYAMA VALLEY


CITY           SKY/WX    TMP DP  RH WIND       PRES   REMARKS
*CUYAMA          N/A     64  48  56 W2        29.87R
PASO ROBLES    NOT AVBL

$$

CAZ032-033-061-200500-
SOUTHERN DESERTS


CITY           SKY/WX    TMP DP  RH WIND       PRES   REMARKS
BLYTHE         NOT AVBL
IMPERIAL       NOT AVBL
PALM SPRINGS   NOT AVBL
THERMAL        NOT AVBL

$$

ELSEWHERE ACROSS THE WESTERN UNITED STATES AND MEXICO


CITY           SKY/WX    TMP DP  RH WIND       PRES   REMARKS
DENVER, CO     NOT AVBL
GRAND CANYON,  NOT AVBL
HONOLULU, HI   NOT AVBL
KAHULUI, MAUI  NOT AVBL
LAKE TAHOE, CA NOT AVBL
LAS VEGAS, NV  NOT AVBL
MAMMOTH LAKES, FAIR      50  28  43 CALM      30.14R
MEXICO CITY, M NOT AVBL
PHOENIX, AZ    NOT AVBL
PORTLAND, OR   NOT AVBL
RENO, NV       NOT AVBL
SALT LAKE CITY NOT AVBL
SAN DIEGO, CA  FAIR      69  61  75 NW3       29.90R
SAN FRANCISCO, NOT AVBL
SAN JOSE, CA   NOT AVBL
SEATTLE, WA    NOT AVBL
TIJUANA, MEX   NOT AVBL

$$

STATION/POSITION TIME  TEMP    WIND        PRES    VSBY  WAVE
                       AIR SEA DIR/SP/G                  HT/PER
                 (UTC) (F)     (DEG/KT/KT) (MB)    (MI)  (FT/S)
POINT ARGUELLO B NOT AVBL
WEST SANTA BARBA 0300   65 69  310/ 19/ 23 1010.6R         6/11
POINT CONCEPTION NOT AVBL
EAST SANTA BARBA 0300   68 69  270/ 10/ 14 1010.6S
SANTA MONICA BAY 0300   67 70  260/  8/ 10 1010.7R         4/11



USA.gov is the U.S. government's official web portal to all federal, state and local government web resources and services.